Location: ???????????
(54.6970°N, 39.1477°E)
Time: 07:34:25
(UTC+00:00)

ALOS 2 - Pass Details

Date: 19 May 2025
Orbit: 630 x 632 km, 97.9° (Epoch: 15 June)

Event Time Altitude Azimuth Distance (km) Brightness Sun altitude
Exits shadow 20:41:34 25° 170° (S) 1,267 3.5 -14.9°
Maximum altitude 20:44:04 81° 254° (WSW) 649 2.6 -14.9°
Drops below altitude 10° 20:48:30 10° 343° (NNW) 2,029 6.6 -15.0°
Sets 20:50:43 0° 345° (NNW) 2,941 7.9 -15.1°
